DECAYED

STARLINK-31172, 58837 (Decayed)

Orbit data source: Space-Track

STARLINK-31172, 58837 was a payload satellite owned by SpaceX/Seattle (US) in LEO that was launched on Wed, 24 Jan 2024 UTC via an FALCON 9 launch vehicle from the Air Force Western Test Range (AFWTR). Payload-class satellites include a variety of spacecraft equipped with specific instruments for various scientific and technological missions. These include communications satellites like Starlink; space stations such as the ISS; scientific satellites like the Hubble; Earth observation satellites from companies like Planet Labs, Umbra, and HawkEye 360; GPS; miniature CubeSats for education and research; and military/defense satellites.

Not visible in the next 10 days
Identifier
58837, 2024-017M
Orbit
Decayed
Country
Flag of USUS
Related business
Manufacturer
SpaceX/Seattle
Mission
Decayed Commercial Communications
Bus & Motor
STARLINK V2M, Unknown motor
Mass
730 kg wet, ~700 kg dry
Launch date (UTC)
2024-01-24 (2 years ago)
Launch vehicle
FALCON 9
Launch site
Air Force Western Test Range (AFWTR)
Object type
Payload
Rocket body
Debris
Shape & HBR
Box + 2 Pan, 17.7 m
Radar Cross Section
33.884 m², Large (>1 m²)

Expand to show TLE details & history
Last TLE update: 1 year ago

TLE from 1 year ago
0 STARLINK-31172
1 58837U 24017M   25094.79512534  .02085462  45044-2  17506-2 0  9998
2 58837  53.1257 295.3842 0011051 286.3410  88.6664 16.14036955 68777
Epoch: 2025-04-04T19:04Z
TLE epoch observation values (Epoch: 2025-04-04T19:04:58.829Z)
Latitude
12.04997°
Longitude
-175.04817°
Altitude
235.788 km
Speed
7.768 km/s
True Right ascension
20h 18m 10s
True Declination
11° 58' 28"
Sunlit
Object was in daylight at epoch
Visualization orbit readout
Latitude
Unknown
Longitude
Unknown
Altitude
Unknown
Speed
Unknown
Apparent Right ascension
Unknown
Apparent Declination
Unknown
Sunlit
N/A
Visualization observer readout
Local Sidereal Time
21:27:17
Azimuth
Unknown
Elevation
Unknown
Doppler factor
Unknown
Orbital elements
Apogee altitude
243.372 km
Perigee altitude
228.754 km
Semi-major axis
6,614.2 km
Eccentricity
0.00111
Inclination
53.1257°
RAAN
295.3842°
Arg. of periapsis
286.341°
True anomaly
88.793°
Mean anomaly
88.6664°
Eccentric anomaly
88.7297°
Mean motion
4.03485 °/min
Orbital period
89.22 mins
BSTAR
0.0017506
Loading maneuver chart data...
Computing Atmospheric mass density...
Loading historical data...
Loading historical data...
Loading historical data...
Loading historical data...
Loading historical data...
Loading historical data...
Loading historical data...

Documentation

Showing up to 5 results
|